Location: ??????
(55.7421°N, 38.8475°E)
Time: 06:38:08
(UTC+00:00)

Daily predictions for brighter satellites

Satellite Brightness Start Highest point End
(mag) Time Altitude Azimuth Time Altitude Azimuth Time Altitude Azimuth
Cosmos 2315 Rocket 4.4 19:03:04 10° SSW 19:09:23 71° WNW 19:15:43 10° N
Cosmos 2322 Rocket 4.3 19:06:53 10° NNW 19:11:19 23° NNE 19:15:46 10° ENE
Cosmos 2058 Rocket 4.3 19:13:07 10° N 19:17:01 30° ENE 19:20:56 10° SE
Cosmos 1833 Rocket 3.8 19:12:55 10° SSE 19:17:30 27° ESE 19:22:08 10° NE
Cosmos 2360 4.4 19:12:19 10° NNW 19:18:05 77° NE 19:23:49 10° SE
Helios 1A Rocket 4.1 19:15:10 10° SSW 19:18:59 39° W 19:22:51 10° NNW
SL-8 R/B 4.4 19:16:45 10° WSW 19:21:04 34° S 19:25:25 10° ESE
Cosmos 2074 Rocket 4.2 19:16:07 10° NNW 19:22:26 78° W 19:28:40 10° S
ARIANE 5 R/B 2.9 19:18:27 10° S 19:22:54 67° WSW 19:27:21 10° NNW
SPOT 5 3.9 19:20:53 10° SSW 19:25:00 36° W 19:29:02 10° NNW
Cosmos 2344 4.2 19:17:37 10° NW 19:25:57 87° SW 19:37:25 10° SE
Meteor 2-1 Rocket 4.3 19:21:00 10° NNW 19:26:32 74° ENE 19:32:02 10° SSE
ATLAS 2AS CENTAUR R/B 3.6 19:20:44 10° NW 19:27:15 39° WSW 19:33:21 10° S
Cosmos 1025 Rocket 4.4 19:25:39 10° SW 19:29:41 40° WNW 19:33:47 10° N
Lacrosse 5 rocket 3.5 19:28:27 10° W 19:30:26 14° SW 19:32:29 10° SSW
GP-B 4.0 19:26:40 10° NNE 19:30:49 36° E 19:34:56 10° SSE
USA 234 3.4 19:25:46 10° SE 19:32:15 61° SSW 19:38:46 10° WNW
Cosmos 1867 4.1 19:28:47 10° NW 19:34:15 62° NE 19:39:40 10° ESE
SAR-Lupe-4 4.2 19:31:06 10° NNE 19:34:31 40° E 19:37:55 10° S
Cosmos 1452 Rocket 3.7 19:29:57 10° S 19:35:03 54° ESE 19:40:12 10° NE
Lacrosse 4 Rocket 3.9 19:31:48 10° W 19:35:19 27° NNW 19:38:49 10° NNE
RESURS DK-1 2.6 19:31:35 10° NW 19:35:42 62° WSW 19:39:46 10° SSE
Cosmos 2082 Rocket 3.8 19:34:24 10° SE 19:38:11 18° E 19:41:58 10° ENE
Cosmos 1408 4.1 19:38:09 10° SE 19:40:46 20° E 19:43:23 10° NE
Cosmos 1607 4.0 19:36:55 10° SW 19:43:10 86° SE 19:49:23 10° NE
Nadezhda 1 Rocket 4.0 19:39:14 10° S 19:45:18 72° E 19:51:21 10° NNE
Cosmos 2154 Rocket 4.2 19:39:30 10° NNW 19:45:45 75° W 19:51:57 10° S
Cosmos 1110 Rocket 4.4 19:43:38 10° S 19:48:40 47° ESE 19:53:44 10° NE
Lacrosse 5 3.4 19:45:11 10° W 19:49:07 23° SW 19:53:02 10° S
SAR-Lupe-1 4.1 19:45:54 10° NNE 19:49:28 64° ESE 19:53:01 10° S
Cosmos 2360 Rocket 4.2 19:47:12 10° NNW 19:51:53 25° NNE 19:56:34 10° E
Cosmos 1536 Rocket 4.1 19:51:24 10° SSW 19:55:40 58° WNW 20:00:00 10° N
Cosmos 2228 3.8 19:54:50 10° NNW 19:58:53 45° W 20:02:56 10° SSW
Cosmos 1606 Rocket 3.8 19:54:36 10° NNW 19:58:55 67° W 20:03:09 10° S
Terra 3.4 19:56:25 10° SSW 20:00:32 29° W 20:04:42 10° NNW
USA 276 3.3 20:02:01 10° SW 20:04:22 21° SSE 20:06:43 10° ESE
SJ 16-02 3.5 20:01:50 10° N 20:05:20 22° NE 20:08:50 10° E
FALCON 9 DEB 3.1 20:04:26 10° WSW 20:07:38 53° S 20:10:51 10° ESE
Cosmos 1869 4.0 20:07:35 10° N 20:11:17 42° ENE 20:14:42 12° SE
COSMOS 2406 3.8 20:07:46 10° S 20:13:02 40° ESE 20:18:22 10° NE
Cosmos 1825 3.6 20:10:17 12° SE 20:13:03 24° E 20:16:07 10° NE
Cosmos 2369 3.8 20:08:23 10° NW 20:14:08 77° WSW 20:19:27 12° SSE
Cosmos 2084 Rocket 3.3 20:12:13 10° WNW 20:16:03 61° SW 20:19:41 12° SE
SL-16 R/B 3.2 20:11:07 10° NNW 20:16:34 44° NE 20:22:00 10° ESE
Cosmos 2084 3.5 20:14:44 10° WSW 20:18:35 72° NNW 20:22:31 10° NE
SL-8 Rocket 4.1 20:12:19 10° N 20:18:39 84° ENE 20:24:24 12° SSE
ERS-2 4.1 20:16:56 10° NE 20:19:19 17° E 20:21:38 10° SE
Cosmos 968 Rocket 3.6 20:17:49 10° NNW 20:23:00 74° WSW 20:27:38 13° SSE
Cosmos 1726 Rocket 4.1 20:19:55 10° NNW 20:24:06 49° W 20:28:04 11° SSW
Cosmos 1980 Rocket 2.3 20:19:37 10° NW 20:25:20 73° WSW 20:30:28 13° SSE
Cosmos 1697 Rocket 3.4 20:22:55 10° NW 20:28:11 41° WSW 20:32:57 12° S
Cosmos 2218 Rocket 4.1 20:21:57 10° N 20:28:24 84° ENE 20:34:15 13° SSE
Meteor 1-11 4.3 20:23:31 11° S 20:28:49 69° E 20:34:23 10° NNE
Spot 4 4.0 20:26:58 13° S 20:31:12 71° WSW 20:36:01 10° NNW
Cosmos 2219 Rocket 4.4 20:28:24 10° NNW 20:33:00 24° NNE 20:37:36 10° E
Cosmos 2366 rocket 4.1 20:27:26 10° NNW 20:33:47 89° ENE 20:39:31 13° S
Cosmos 2341 Rocket 4.2 20:28:35 10° NNW 20:34:55 69° W 20:40:43 12° S
Cosmos 1812 Rocket 4.2 20:32:02 10° N 20:36:25 49° ENE 20:40:21 12° SE
ALOS 2 2.6 20:34:29 14° SSE 20:38:14 89° WSW 20:42:40 10° NNW
USA 267 3.2 20:31:48 10° ENE 20:38:20 67° SSE 20:44:51 10° SW
Cosmos 1328 4.5 20:37:18 10° SSW 20:41:15 53° WNW 20:45:12 10° N
Cosmos 1892 2.6 20:38:49 14° S 20:41:57 77° E 20:45:43 10° NNE
Cosmos 192 4.4 20:37:38 11° SSW 20:42:12 62° ESE 20:47:04 10° NNE
ADEOS Rocket 3.6 20:36:20 12° SSE 20:43:00 89° WSW 20:50:47 10° NNW
ASTEX 1 4.1 20:40:13 10° N 20:45:06 53° WNW 20:49:57 10° SSW
In-Cosmos 22 Rocket 4.3 20:40:12 13° S 20:45:08 64° E 20:50:33 10° NNE
Cosmos 1486 Rocket 4.0 20:44:52 10° NNW 20:50:07 89° WSW 20:54:49 13° SSE
Cosmos 1633 3.7 20:50:59 15° SSE 20:53:23 31° E 20:56:30 10° NNE
Cosmos 2333 Rocket 3.9 20:48:48 10° NNW 20:54:01 33° NE 20:59:13 10° E
Cosmos 1602 Rocket 4.2 20:51:37 15° SSE 20:54:56 42° E 20:59:01 10° NNE
Cosmos 2058 Rocket 3.9 20:51:00 10° NNW 20:55:09 42° W 20:58:53 12° SSW
Cosmos 2322 Rocket 2.8 20:50:59 10° NNW 20:56:35 56° NE 21:02:11 10° SE
Cosmos 2278 3.8 20:53:33 10° NW 20:59:15 68° WSW 21:04:14 14° SSE
Cosmos 1833 Rocket 2.9 20:55:21 10° SW 21:00:58 75° NW 21:06:38 10° NNE
Cosmos 1892 Rocket 4.3 20:59:37 10° SSW 21:03:54 49° WNW 21:08:11 10° N
H-2A R/B 3.5 21:00:59 10° NNE 21:05:13 85° ESE 21:08:47 14° SSW
GP-B 4.4 21:04:04 10° NNW 21:08:05 34° WNW 21:12:05 10° SW
Cosmos 807 4.5 21:04:24 10° NNW 21:08:05 69° W 21:10:19 18° S
Aureole 1 Rocket 4.4 21:03:57 10° NNW 21:10:26 79° WSW 21:17:54 12° SSE
Cosmos 1992 Rocket 4.4 21:06:33 15° S 21:10:43 48° ESE 21:15:46 10° NE
ATLAS 5 CENTAUR R/B 3.0 21:09:15 14° SSE 21:11:01 18° ESE 21:13:56 10° ENE
Cosmos 1354 Rocket 4.2 21:07:54 10° NNW 21:13:16 77° ENE 21:18:30 10° SSE
Cosmos 2181 Rocket 4.1 21:07:58 12° SSW 21:13:46 77° WNW 21:20:02 10° N
Cosmos 1408 3.5 21:12:01 10° SW 21:15:14 39° WNW 21:18:31 10° N
Cosmos-2242 3.0 21:11:51 10° NNW 21:16:09 86° E 21:19:34 16° SSE
USA 234 4.4 21:11:53 14° S 21:16:12 26° SW 21:21:31 10° WNW
Cosmos 1867 4.2 21:12:37 10° NW 21:17:44 41° WSW 21:21:54 15° S
Cosmos 1626 Rocket 3.5 21:16:57 15° SSW 21:20:33 84° WNW 21:24:55 10° N
Cosmos 2082 Rocket 2.2 21:15:46 10° SSW 21:21:26 79° ESE 21:27:10 10° NE
Cosmos 1503 Rocket 4.1 21:21:29 10° NNW 21:26:50 76° WSW 21:31:32 13° SSE
Cosmos 2237 4.3 21:25:04 10° NW 21:30:51 84° NE 21:36:36 10° SE
Cosmos 1821 Rocket 4.1 21:24:41 10° NNW 21:31:00 74° W 21:36:20 14° S
Cosmos 1825 Rocket 4.2 21:29:21 15° SSE 21:32:43 44° E 21:36:51 10° NNE
Okean 1-7 Rocket 4.0 21:28:48 13° SSW 21:32:45 59° WNW 21:37:13 10° N
Cosmos 1302 Rocket 4.3 21:29:39 10° SW 21:34:50 66° WNW 21:40:02 10° NNE
Meteor 2-20 4.5 21:31:00 14° S 21:36:18 82° E 21:42:26 10° NNE
Cosmos 2360 Rocket 2.5 21:31:13 10° NNW 21:36:55 68° NE 21:42:34 10° SE
Cosmos 972 Rocket 4.5 21:32:19 10° NNW 21:37:14 59° ENE 21:42:27 10° SE
USA 276 2.9 21:36:55 10° WSW 21:39:31 27° S 21:42:07 10° ESE
Cosmos 2058 3.5 21:38:13 15° SSE 21:41:29 48° E 21:45:33 10° NNE
COSMOS 2428 4.3 21:36:35 10° NNW 21:41:51 36° NE 21:47:06 10° ESE
FALCON 9 DEB 3.6 21:40:36 10° W 21:43:37 34° SSW 21:46:38 10° SE
Cosmos 1777 Rocket 4.1 21:38:16 10° NNW 21:43:38 87° ENE 21:48:55 10° SSE
SJ 16-02 1.3 21:40:00 10° NNW 21:44:27 80° WSW 21:48:23 13° SSE
Geosat 4.0 21:42:18 10° SSE 21:47:20 81° SW 21:52:25 10° NW
Cosmos 1825 3.2 21:44:54 11° SW 21:48:13 39° WNW 21:51:47 10° N
Nadezhda 3 Rocket 4.0 21:45:47 14° S 21:51:09 88° E 21:57:21 10° NNE
ERS-2 2.4 21:49:27 10° N 21:53:01 60° WNW 21:56:00 14° SSW
SL-19 R/B 4.2 21:53:56 15° SSE 21:56:54 80° WSW 22:01:03 10° NNW
COSMOS 2406 3.9 21:51:34 10° SW 21:57:14 55° NW 22:02:56 10° NNE
Cosmos 1606 3.1 21:53:50 10° NNW 21:57:35 50° W 22:00:26 16° SSW
Nimbus 7 Rocket 4.4 21:51:52 10° NNE 21:57:49 87° ESE 22:03:09 13° SSW
Meteor 2-2 Rocket 4.4 21:51:56 10° NNW 21:57:54 80° W 22:03:24 13° S
PSLV R/B 3.8 21:54:02 10° NNE 21:58:50 84° WNW 22:02:56 14° SSW
SL-16 R/B 2.5 21:55:21 10° NW 22:00:51 52° WSW 22:05:47 13° S
Meteor 2-20 Rocket 4.5 21:57:03 14° S 22:02:27 90° NNE 22:08:36 10° NNE
Cosmos 1758 Rocket 3.9 22:04:00 14° SSW 22:07:42 58° WNW 22:12:03 10° N
Cosmos 1980 Rocket 4.0 22:04:56 10° WNW 22:08:24 17° W 22:11:50 10° SW
Cosmos 2221 2.6 22:08:23 10° NNW 22:12:44 85° ENE 22:16:46 12° SSE
Cosmos 2219 Rocket 2.7 22:12:22 10° NNW 22:18:01 65° NE 22:23:41 10° SE
Thor Agena Rocket 4.4 22:15:13 10° NNE 22:20:12 42° E 22:25:00 10° S
USA 267 3.4 22:15:00 10° ENE 22:21:34 83° N 22:28:08 10° W
Cosmos 1340 Rocket 2.8 22:20:18 15° S 22:23:30 76° ESE 22:27:29 10° NNE
MOZ.5/SAFIR/RUBIN 5/SL-8 3.8 22:21:00 10° SSE 22:25:45 87° WSW 22:30:32 10° NNW
Cosmos 1633 4.1 22:24:53 10° SW 22:27:54 27° WNW 22:30:56 10° N
CZ-2D R/B 3.4 22:23:53 10° NNE 22:28:33 32° E 22:33:12 10° SSE
Cosmos 2151 4.3 22:26:50 10° SSE 22:30:40 33° E 22:34:34 10° NNE
Meteor 2-3 Rocket 4.4 22:26:46 10° SSE 22:32:08 48° E 22:37:30 10° NNE
SL-16 R/B 3.0 22:29:37 10° SE 22:35:48 66° ENE 22:42:02 10° NNW
Cosmos 2333 Rocket 2.2 22:33:05 10° NW 22:38:53 80° WSW 22:44:40 10° SSE
Resurs 1-4 Rocket 3.1 22:35:20 10° NNE 22:40:22 41° E 22:45:23 10° SSE
Cosmos 2322 Rocket 2.9 22:35:19 10° NW 22:40:31 38° WSW 22:45:30 11° S
Cosmos 1782 2.9 22:38:20 10° N 22:42:22 76° ENE 22:46:20 10° SSE
COSMOS 2487 4.3 22:43:22 10° SSE 22:45:34 18° ESE 22:47:49 10° ENE
ATLAS 5 CENTAUR R/B 1.4 22:50:56 10° SW 22:54:49 87° NW 22:59:23 10° NE
Cosmos 1953 Rocket 4.1 22:52:33 11° SSW 22:56:40 51° WNW 23:01:01 10° N
Cosmos 972 4.4 22:55:05 10° NNW 22:59:56 66° WSW 23:04:59 10° S
Cosmos 1727 Rocket 4.2 22:58:21 10° S 23:04:40 75° E 23:10:59 10° NNE
Cosmos 2082 Rocket 3.7 23:00:57 10° W 23:06:06 33° NW 23:11:14 10° NNE
Cosmos 1763 Rocket 4.4 23:01:46 10° S 23:06:38 42° ESE 23:11:36 10° NE
Cosmos 2333 4.5 23:04:20 10° NW 23:09:55 52° WSW 23:15:30 10° S
Cosmos 990 Rocket 4.0 23:05:50 10° NNW 23:10:57 64° WSW 23:16:02 10° SSE
USA 290 2.2 23:10:40 10° NNW 23:13:56 87° ENE 23:17:10 10° SSE
USA 276 3.6 23:12:39 10° WSW 23:14:36 16° SSW 23:16:32 10° SSE
Cosmos 1933 3.9 23:11:02 10° NNW 23:14:51 43° W 23:18:39 10° SSW
NPP 4.0 23:11:26 10° NNE 23:16:49 62° ESE 23:22:10 10° S
Cosmos 1459 Rocket 4.0 23:12:43 10° NNW 23:18:51 90° W 23:24:55 10° S
SL-4 R/B 3.6 23:16:25 10° S 23:18:57 18° SE 23:21:36 10° ESE
Cosmos 1076 Rocket 3.6 23:14:49 10° SSW 23:19:11 75° WNW 23:23:36 10° N
Cosmos 1833 4.3 23:13:41 10° SSW 23:19:16 73° ESE 23:24:53 10° NE
Cosmos 2100 Rocket 4.1 23:13:36 10° NNW 23:20:02 83° W 23:26:25 10° S
Cosmos 2360 Rocket 3.1 23:15:40 10° NW 23:20:34 30° WSW 23:25:26 10° SSW
COSMOS 2455 3.4 23:15:11 10° NW 23:21:12 64° NE 23:27:11 10° ESE
SJ 16-02 3.4 23:20:06 10° WNW 23:22:15 13° W 23:24:24 10° WSW
ADEOS II 2.8 23:18:12 10° NNE 23:23:20 49° E 23:28:25 10° S
Cosmos 1812 3.0 23:20:54 10° NNW 23:24:39 52° W 23:28:21 10° S
COSMOS 2428 2.7 23:20:51 10° NW 23:26:33 70° WSW 23:32:14 10° SSE
Cosmos 44 3.8 23:23:26 10° SSW 23:27:50 44° SE 23:32:04 10° NE
Cosmos 1725 Rocket 4.3 23:24:15 10° N 23:30:29 73° ENE 23:36:39 10° SSE
NOSS 0 Rocket 4.0 23:26:21 10° NW 23:32:35 89° SW 23:38:45 10° SSE
Cosmos 1328 Rocket 4.4 23:28:46 10° N 23:33:08 53° ENE 23:37:27 10° SSE
Cosmos 1898 Rocket 3.6 23:29:19 10° NNW 23:34:27 62° WSW 23:39:32 10° S
Cosmos 2173 Rocket 4.1 23:29:31 10° NNW 23:35:51 71° W 23:42:11 10° S
Cosmos 2237 Rocket 2.6 23:34:45 10° NNW 23:40:29 72° NE 23:46:08 10° SE
Cosmos 1151 Rocket 3.1 23:38:10 10° NNW 23:42:35 89° W 23:46:59 10° S
SL-16 R/B 4.2 23:42:16 10° W 23:43:40 11° W 23:45:05 10° WSW
MOS 1 Rocket 3.9 23:39:34 10° S 23:44:26 48° W 23:49:35 10° NNW
UNK 4.1 23:40:59 10° S 23:45:32 51° W 23:50:07 10° NNW
Cosmos 2322 4.2 23:40:23 10° NW 23:45:44 43° WSW 23:51:02 10° S
Cosmos 2061 Rocket 4.2 23:39:36 10° N 23:46:05 86° E 23:52:33 10° S
Meteor 1-10 Rocket 4.4 23:40:18 10° NNW 23:46:18 88° ENE 23:52:12 10° SSE
